KUIPER-00123

导读

KUIPER-00139是美国亚马逊“柯伊伯计划”中的一颗近地轨道互联网卫星,于2025年9月25日发射升空。该卫星隶属于亚马逊计划部署的超过3200颗卫星组成的第一代星座系统,旨在构建卫星互联网系统,挑战SpaceX“星链”主导的市场格局,KUIPER-00139的成功入轨进一步推动了“柯伊伯计划”的星座部署进程,助力亚马逊抢占卫星互联网市场份额。

Basic Information
目录编号:
65765
目录名称:
KUIPER-00139
国际标识:
2025-217D
轨道中心:
EARTH
卫星名称:
KUIPER-00139
卫星全名:
KUIPER-00123
卫星状态:
在轨 (已飞行352 天)
发射日期:
2025-09-25 UTC
国别 :
美国 (US)
星等 :
--
This satellite is enrolled in the Space Conjunction Data Service (SCDS) and the current flight risk assessment level is: No High Risk
Orbit Information
数据来源 国际轨道数据 AOE轨道数据
星历时间 2026-09-11T20:22:51+0800
15小时前
查看轨道信息
2026-09-10T08:00:00+0800
2天前
查看轨道信息
半长轴 7007.703km 7007.715km
偏心率 0.0000531 0.0000491
轨道倾角 51.899° 51.898°
近地点辐角 38.246° 51.134°
升交点赤经 278.889° 285.594°
平近点角 321.854° 147.934°
近地点 629.193km 629.233km
远地点 629.939km 629.923km
周期 97.302分钟 97.303分钟
每日圈数 14.799234 14.799197
Detailed Information
使用方式:
暂无
2D Orbit Map
3D Orbit Map
Orbit Altitude Analysis Chart
Orbit Inclination Analysis Chart
Orbit Comprehensive Analysis Chart
View Comprehensive Chart
Miss Distance Evolution Trend with All Objects
Collision Probability Evolution Trend with All Objects